User: anonymous   Login
Location: NJAA Observatory
(40.6819°N, 74.8979°W)
Time: 20:39:24
(UTC-04:00)
Language:

S-56A Canister/Altair - Orbit

View from above orbital plane
View from above orbital plane
View from above satellite
View from above satellite

Ground track
Ground track

The orbit data is extracted from the following two-line orbital elements,

1    82U 61004B   17116.45224179 +.00000099 +00000-0 +11443-3 0  9995
2    82 038.8585 128.5481 1170129 303.8859 045.5822 12.25832472666915
Epoch (UTC): 26 April 2017 10:51:13
Eccentricity: 0.1170129
inclination: 38.8585°
perigee height: 637 km
apogee height: 2497 km
right ascension of ascending node: 128.5481°
argument of perigee: 303.8859°
revolutions per day: 12.25832472
mean anomaly at epoch: 45.5822°
orbit number at epoch: 66691

The dashed part of the orbit path shows where the satellite is in the earth's shadow,  

DLR